Location: ?????
(32.7281°N, 34.9563°E)
Time: 12:34:29
(UTC+00:00)

Helios 1A Rocket - Pass Details

Date: 29 October 2020
Orbit: 562 x 587 km, 98.3° (Epoch: 26 November)

Event Time Altitude Azimuth Distance (km) Brightness Sun altitude
Rises 15:33:22 0° 141° (SE) 2,795 6.1 -9.3°
Reaches altitude 10° 15:35:45 10° 129° (SE) 1,896 5.2 -9.8°
Maximum altitude 15:39:13 27° 72° (ENE) 1,129 3.8 -10.6°
Drops below altitude 10° 15:42:42 10° 14° (NNE) 1,896 5.3 -11.3°
Sets 15:45:04 0° 2° (N) 2,794 6.3 -11.8°
